Header for Extended Forecast Station List Page

Search by: ID | Name | Date | Parm | Value | Avg | % Avg
Sort by: ID | Name | Date | Parm | Value | Avg | % Avg

Enter search or view all records.

Click on id for station plot
#IDNameDateParmValueAvg% Avg
0HWRI1BIG LOST-AT HOWELL RANCH NEAR CHILLY08-25-2014DISCHARGE (KAF)192770
1MACI1BIG LOST-MACKAY RESERVOIR NEAR MACKAY08-25-2014INFLOW (KAF)3013225
2HALI1BIG WOOD-AT HAILEY08-25-2014DISCHARGE (KAF)344673
3MAGI1BIG WOOD-MAGIC DAM08-25-2014INFLOW (KAF)172860
4BITM8BITTERROOT-NEAR MISSOULA08-25-2014DISCHARGE (KAF)21223191
5BONM8BLACKFOOT-NEAR BONNER08-25-2014DISCHARGE (KAF)14115193
6BIGI1BOISE-AT GLENWOOD BRIDGE08-25-2014DISCHARGE (KAF)668181
7LUCI1BOISE-LUCKY PEAK DAM08-25-2014INFLOW (KAF)104MM
8PARI1BOISE-NEAR PARMA08-25-2014DISCHARGE (KAF)18422581
9HOTI1BRUNEAU-NEAR HOT SPRINGS08-25-2014DISCHARGE (KAF)2423108
10BULO3BULLY CREEK-BULLY CREEK DAM08-25-2014INFLOW (KAF)1197
11BUDW1BUMPING-BUMPING LAKE DAM08-25-2014INFLOW (KAF)3026114
12CHDW1CHELAN-LAKE CHELAN DAM08-25-2014INFLOW (KAF)172169102
13ABOM8CLARK FORK-ABOVE MISSOULA08-25-2014DISCHARGE (KAF)373367102
14DLGM8CLARK FORK-AT DEER LODGE08-25-2014DISCHARGE (KAF)6857119
15SRGM8CLARK FORK-AT ST REGIS08-25-2014DISCHARGE (KAF)73778394
16BELM8CLARK FORK-BELOW MISSOULA08-25-2014DISCHARGE (KAF)58560597
17CABI1CLARK FORK-CABINET GORGE DAM08-25-2014INFLOW (KAF)2875323389
18NOXM8CLARK FORK-NOXON RAPIDS DAM08-25-2014INFLOW (KAF)2619309285
19DRMM8CLARK FORK-NR DRUMMOND08-25-2014DISCHARGE (KAF)167MM
20CLUW1CLE ELUM-CLE ELUM LAKE08-25-2014INFLOW (KAF)8581105
21ORFI1CLEARWATER-AT OROFINO08-25-2014DISCHARGE (KAF)527521101
22SPDI1CLEARWATER-AT SPALDING08-25-2014DISCHARGE (KAF)13281235108
23COEI1COEUR D ALENE-COEUR D ALENE LAKE08-25-2014INFLOW (KAF)28135180
24CIBW1COLUMBIA-AT INTL BOUNDARY08-25-2014DISCHARGE (KAF)17799MM
25BONO3COLUMBIA-BONNEVILLE DAM08-25-2014INFLOW (KAF)26394MM
26CHJW1COLUMBIA-CHIEF JOSEPH DAM08-25-2014INFLOW (KAF)180221907394
27GCDW1COLUMBIA-GRAND COULEE DAM08-25-2014INFLOW (KAF)1857817660105
28JDAO3COLUMBIA-JOHN DAY DAM08-25-2014INFLOW (KAF)251202709593
29MCDW1COLUMBIA-MCNARY DAM08-25-2014INFLOW (KAF)244942652492
30PRWW1COLUMBIA-PRIEST RAPIDS DAM08-25-2014INFLOW (KAF)189281904399
31RRHW1COLUMBIA-ROCKY REACH DAM08-25-2014INFLOW (KAF)186511984494
32TDAO3COLUMBIA-THE DALLES DAM08-25-2014INFLOW (KAF)258592894989
33WANW1COLUMBIA-WANAPUM DAM08-25-2014INFLOW (KAF)1892618777101
34WELW1COLUMBIA-WELLS DAM08-25-2014INFLOW (KAF)183311937995
35DEDI1DEADWOOD-NEAR LOWMAN08-25-2014INFLOW (KAF)1818100
36MODO3DESCHUTES-AT MOODY NR BIGGS08-25-2014DISCHARGE (KAF)11791185100
37ARDW1ENTIAT-NEAR ARDENVOIR08-25-2014DISCHARGE (KAF)2323101
38CHEI1FALLS-NEAR CHESTER08-25-2014DISCHARGE (KAF)15799159
39CFMM8FLATHEAD-AT COLUMBIA FALLS08-25-2014DISCHARGE (KAF)1045117189
40KERM8FLATHEAD-KERR DAM08-25-2014INFLOW (KAF)1201141585
41TRYO3GRANDE RONDE-TROY08-25-2014DISCHARGE (KAF)16422075
42REXI1HENRYS FORK-AT REXBURG08-25-2014DISCHARGE (KAF)467405115
43ANTI1HENRYS FORK-AT ST. ANTHONY08-25-2014DISCHARGE (KAF)339325104
44IPDI1HENRYS FORK-ISLAND PARK DAM08-25-2014INFLOW (KAF)135130104
45HODO3HOOD-NEAR TUCKER BRIDGE08-25-2014DISCHARGE (KAF)173141122
46SERO3JOHN DAY-AT SERVICE CK08-25-2014DISCHARGE (KAF)739279
47KADW1KACHESS-KACHESS DAM08-25-2014INFLOW (KAF)3728130
48LAUW1KETTLE-AT LAURIER08-25-2014DISCHARGE (KAF)10012878
49PITW1KLICKITAT-NEAR PITT08-25-2014DISCHARGE (KAF)19420197
50BFEI1KOOTENAI-AT BONNERS FERRY08-25-2014STAGE (FT)MMM
51LEOI1KOOTENAI-AT LEONIA08-25-2014DISCHARGE (KAF)26471849143
52LYDM8KOOTENAI-LIBBY DAM08-25-2014INFLOW (KAF)990122481
53LWRI1LITTLE WOOD-LITTLE WOOD DAM08-25-2014INFLOW (KAF)111574
54BERO3MALHEUR-AGENCY VALLEY DAM08-25-2014INFLOW (KAF)101098
55VALO3MALHEUR-NEAR VALE08-25-2014DISCHARGE (KAF)72727
56WRMO3MALHEUR-WARM SPRINGS DAM08-25-2014INFLOW (KAF)99101
57MYKO3MCKAY CREEK-NEAR PILOT ROCK08-25-2014DISCHARGE (KAF)65114
58PATW1METHOW-NEAR PATEROS08-25-2014DISCHARGE (KAF)9410490
59WGCM8MF FLATHEAD-NEAR WEST GLACIER08-25-2014DISCHARGE (KAF)245196125
60CLFW1NACHES-NEAR CLIFFDEL08-25-2014DISCHARGE (KAF)688184
61NACW1NACHES-NEAR NACHES08-25-2014DISCHARGE (KAF)11985140
62DWRI1NF CLEARWATER-DWORSHAK DAM08-25-2014INFLOW (KAF)410390105
63FCFM8NF FLATHEAD-NEAR COLUMBIA FALLS08-25-2014DISCHARGE (KAF)257235109
64MONO3NF JOHN DAY-AT MONUMENT08-25-2014DISCHARGE (KAF)374877
65CSDI1NF PAYETTE-CASCADE DAM08-25-2014INFLOW (KAF)808099
66TONW1OKANOGAN-NEAR TONASKET08-25-2014DISCHARGE (KAF)21427977
67OWYO3OWYHEE-BELOW OWYHEE DAM08-25-2014INFLOW (KAF)335956
68EMMI1PAYETTE-NEAR EMMETT08-25-2014DISCHARGE (KAF)26536872
69ALFW1PEND OREILLE-ALBENI FALLS DAM08-25-2014INFLOW (KAF)2940365480
70HOPI1PEND OREILLE-PEND OREILLE LAKE NR HOPE08-25-2014LAKE ELEVATION (FT)MMM
71PIHI1PORTNEUF-AT POCATELLO08-25-2014DISCHARGE (KAF)334474
72PRTI1PRIEST-NEAR PRIEST RIVER08-25-2014DISCHARGE (KAF)204195104
73RCCM8ROCK CREEK-NEAR CLINTON08-25-2014DISCHARGE (KAF)505787
74WHBI1SALMON-AT WHITEBIRD08-25-2014DISCHARGE (KAF)1073111996
75ARAI1SF BOISE-ANDERSON RANCH DAM08-25-2014INFLOW (KAF)8168119
76HHWM8SF FLATHEAD-HUNGRY HORSE DAM08-25-2014INFLOW (KAF)17623575
77PLDI1SF SNAKE-PALISADES DAM08-25-2014INFLOW (KAF)899902100
78SIFI1SNAKE-AB EAGLE ROCK NR IDAHO FALLS08-25-2014DISCHARGE (KAF)1075947113
79AFRI1SNAKE-AMERICAN FALLS RESERVOIR08-25-2014INFLOW (KAF)14751325111
80SNAI1SNAKE-AT BLACKFOOT08-25-2014DISCHARGE (KAF)809621130
81MILI1SNAKE-AT MILNER08-25-2014DISCHARGE (KAF)7727528
82WEII1SNAKE-AT WEISER08-25-2014DISCHARGE (KAF)2293333469
83SWAI1SNAKE-BELOW SWAN FALLS08-25-2014DISCHARGE (KAF)1914230583
84BRNI1SNAKE-BROWNLEE DAM08-25-2014INFLOW (KAF)2457340372
85IHDW1SNAKE-ICE HARBOR DAM08-25-2014INFLOW (KAF)4789631676
86JLKW4SNAKE-JACKSON LAKE AT DAM08-25-2014INFLOW (KAF)132119110
87LGSW1SNAKE-LITTLE GOOSE DAM08-25-2014INFLOW (KAF)4813638475
88LGDW1SNAKE-LOWER GRANITE DAM08-25-2014INFLOW (KAF)4817634876
89LMNW1SNAKE-LOWER MONUMENTAL DAM08-25-2014INFLOW (KAF)4804639475
90ALPW4SNAKE-NEAR ALPINE08-25-2014DISCHARGE (KAF)59261297
91ANAW1SNAKE-NEAR ANATONE08-25-2014DISCHARGE (KAF)3555498171
92BFTI1SNAKE-NEAR BLACKFOOT08-25-2014DISCHARGE (KAF)830653127
93HEII1SNAKE-NEAR HEISE08-25-2014DISCHARGE (KAF)1007102898
94JKSW4SNAKE-NEAR JACKSON08-25-2014DISCHARGE (KAF)47350793
95SHYI1SNAKE-NEAR SHELLEY08-25-2014DISCHARGE (KAF)1027826124
96LLKW1SPOKANE-AT LONGLAKE08-25-2014INFLOW (KAF)65376286
97SPOW1SPOKANE-AT SPOKANE08-25-2014DISCHARGE (KAF)486MM
98SJMI1ST JOE-AT ST MARIES08-25-2014STAGE (FT)MMM
99SATI1ST MARIES-NEAR SANTA08-25-2014DISCHARGE (KAF)182091
100STRM8ST. REGIS-NEAR ST. REGIS08-25-2014DISCHARGE (KAF)3532110
101TNAW1TEANAWAY-BELOW FORKS08-25-2014DISCHARGE (KAF)1918101
102TEAI1TETON-NEAR ST. ANTHONY08-25-2014DISCHARGE (KAF)150134112
103RILW1TIETON-RIMROCK LAKE NEAR RIMROCK08-25-2014INFLOW (KAF)6561108
104PDTO3UMATILLA-AT PENDLETON08-25-2014DISCHARGE (KAF)3531112
105GIBO3UMATILLA-NEAR GIBBON08-25-2014DISCHARGE (KAF)2118113
106UMAO3UMATILLA-NEAR UMATILLA08-25-2014DISCHARGE (KAF)6029202
107TCHW1WALLA WALLA-NEAR TOUCHET08-25-2014DISCHARGE (KAF)4239107
108WSRI1WEISER-NEAR WEISER08-25-2014DISCHARGE (KAF)415081
109PESW1WENATCHEE-AT PESHASTIN08-25-2014DISCHARGE (KAF)273251109
110UNDW1WHITE SALMON-NEAR UNDERWOOD08-25-2014DISCHARGE (KAF)172171101
111RIDI1WILLOW CREEK-RIRIE DAM08-25-2014INFLOW (KAF)4763
112EASW1YAKIMA-AT EASTON08-25-2014DISCHARGE (KAF)9159154
113KIOW1YAKIMA-AT KIONA08-25-2014DISCHARGE (KAF)717545132
114UMTW1YAKIMA-AT UMTANUM08-25-2014DISCHARGE (KAF)379350109
115KEDW1YAKIMA-KEECHELUS LAKE08-25-2014INFLOW (KAF)5639143
116PARW1YAKIMA-NEAR PARKER08-25-2014DISCHARGE (KAF)386261148